Regional Weather Roundup
Issued by NWS Bismarck, ND

Home | Current Version | Previous Version | Text Only | Print | Product List | Glossary On
Versions: 1 2 3 4 5 6 7 8 9 10 11 12 13 14 15 16 17 18 19 20 21 22 23 24 25 26 27 28 29 30 31 32 33 34 35 36 37 38 39 40 41 42 43 44 45 46 47 48 49 50
000
ASUS43 KBIS 301810
RWRBIS

NWR BROADCAST TEXT
NATIONAL WEATHER SERVICE BISMARCK ND
100 PM CDT SUN APR 30 2017

NOTE: "FAIR" INDICATES FEW OR NO CLOUDS BELOW 12,000 FEET WITH NO
SIGNIFICANT WEATHER AND/OR OBSTRUCTIONS TO VISIBILITY.


CITY           SKY/WX    TMP DP  RH WIND       PRES   REMARKS
WILLISTON      FAIR      65  19  17 SW14G24   29.92F
MINOT          FAIR      65  20  17 VRB3      29.94F
MINOT AFB      FAIR      65  23  20 SW6       29.93F
BISMARCK       FAIR      61  25  25 SE10G17   30.00F
DICKINSON      FAIR      59  16  18 E9        29.95S
GARRISON         N/A     59  18  20 MISG      29.96F
HETTINGER ARPT FAIR      59  20  22 VRB3      29.99S
JAMESTOWN      FAIR      58  25  28 E14       29.99F
HAZEN          FAIR      61  19  20 VRB3G14   29.99S
LINTON         FAIR      59  30  33 E8G17     30.00F
MANDAN         FAIR      59  21  23 VRB7      30.00F
STANLEY        FAIR      61  23  23 VRB5G16   29.95F
TIOGA          FAIR      61  18  18 W14G21    29.93F
WATFORD CITY   FAIR      63  18  17 S10G16    29.92F
$$

CITY           SKY/WX    TMP DP  RH WIND       PRES   REMARKS
GRAND FORKS    FAIR      61  26  26 E9        30.04F
GRAND FORKS AF FAIR      58  26  29 E9        30.04F
DEVILS LAKE    FAIR      58  24  27 SE10      30.03F
FARGO          FAIR      59  14  17 E16       30.00F
CAVALIER       FAIR      59  28  31 SE8G15    30.04F
GRAFTON        FAIR      59  30  33 S8        30.08F
GWINNER        CLEAR     55  23  28 MISG      29.97F
LANGDON        FAIR      64  25  22 SE9G21    30.02F
ROLLA          FAIR      61  19  20 SE5G15    29.99F
$$

CITY           SKY/WX    TMP DP  RH WIND       PRES   REMARKS
ABERDEEN       FAIR      56  15  20 NE22G30   29.94F
MOBRIDGE       FAIR      62  23  22 NE7G18    29.95
BUFFALO          N/A     58  20  22 SE6       29.91F
RAPID CITY     FAIR      55  21  26 NE9       29.98F
GLASGOW        FAIR      60  32  34 W13       29.87F
SIDNEY         FAIR      63  22  20 S16       29.90F
WOLF POINT     FAIR      65  31  28 W15G23    29.86F
MILES CITY     FAIR      63  26  24 W13       29.91F
$$

CITY           SKY/WX    TMP DP  RH WIND       PRES   REMARKS
BILLINGS       FAIR      56  32  40 W14       29.96F
GREAT FALLS    PTSUNNY   53  32  44 SW22G30   29.91F
REGINA         MOSUNNY   61  36  39 SE8       29.85F
ESTEVAN        MOSUNNY   63  25  23 SW18G25   29.90F
$$





USA.gov is the U.S. government's official web portal to all federal, state and local government web resources and services.